TimeEST,TemperatureF,Dew PointF,Humidity,Sea Level PressureIn,VisibilityMPH,Wind Direction,Wind SpeedMPH,Gust SpeedMPH,PrecipitationIn,Events,Conditions,WindDirDegrees,DateUTC
12:20 AM,39.2,35.6,87,30.01,10.0,ENE,4.6,-,N/A,,Overcast,70,2013-01-12 05:20:00
12:33 AM,39.2,35.6,87,30.01,10.0,East,5.8,-,N/A,,Overcast,90,2013-01-12 05:33:00
12:54 AM,39.0,35.1,86,30.02,10.0,East,4.6,-,N/A,,Overcast,90,2013-01-12 05:54:00
1:54 AM,37.0,34.0,89,30.04,9.0,ENE,3.5,-,N/A,,Overcast,60,2013-01-12 06:54:00
2:54 AM,37.9,34.0,86,30.04,10.0,ENE,3.5,-,N/A,,Overcast,60,2013-01-12 07:54:00
3:54 AM,37.0,34.0,89,30.04,9.0,ENE,4.6,-,N/A,,Overcast,70,2013-01-12 08:54:00
4:54 AM,37.0,34.0,89,30.04,8.0,NE,3.5,-,N/A,,Overcast,50,2013-01-12 09:54:00
5:54 AM,36.0,33.1,89,30.05,6.0,East,4.6,-,N/A,,Overcast,80,2013-01-12 10:54:00
5:57 AM,35.6,33.8,93,30.04,6.0,East,4.6,-,N/A,,Overcast,80,2013-01-12 10:57:00
6:54 AM,36.0,33.1,89,30.04,7.0,East,6.9,-,N/A,,Overcast,90,2013-01-12 11:54:00
7:54 AM,36.0,33.1,89,30.06,4.0,East,6.9,-,N/A,,Mostly Cloudy,80,2013-01-12 12:54:00
8:54 AM,37.0,34.0,89,30.06,6.0,East,6.9,-,N/A,,Mostly Cloudy,90,2013-01-12 13:54:00
9:54 AM,39.0,35.1,86,30.04,10.0,East,6.9,-,N/A,,Overcast,90,2013-01-12 14:54:00
10:54 AM,43.0,37.0,80,30.03,10.0,East,5.8,-,N/A,,Mostly Cloudy,80,2013-01-12 15:54:00
11:54 AM,46.0,39.9,79,30.04,10.0,Calm,Calm,-,N/A,,Mostly Cloudy,0,2013-01-12 16:54:00
12:54 PM,50.0,41.0,71,30.02,10.0,SSE,3.5,-,N/A,,Mostly Cloudy,160,2013-01-12 17:54:00
1:54 PM,48.9,41.0,74,30.03,10.0,SSE,6.9,-,N/A,,Mostly Cloudy,160,2013-01-12 18:54:00
2:54 PM,48.9,41.0,74,30.02,10.0,SE,4.6,-,N/A,,Mostly Cloudy,130,2013-01-12 19:54:00
3:54 PM,46.0,39.9,79,30.02,10.0,ESE,8.1,-,N/A,,Overcast,120,2013-01-12 20:54:00
4:54 PM,46.9,42.1,83,30.01,10.0,SE,6.9,-,N/A,,Mostly Cloudy,130,2013-01-12 21:54:00
5:54 PM,42.1,39.0,89,30.03,10.0,East,5.8,-,N/A,,Mostly Cloudy,80,2013-01-12 22:54:00
6:54 PM,44.1,39.9,85,30.03,10.0,East,6.9,-,N/A,,Mostly Cloudy,80,2013-01-12 23:54:00
7:54 PM,42.1,39.9,92,30.03,10.0,NE,4.6,-,N/A,,Mostly Cloudy,50,2013-01-13 00:54:00
8:54 PM,39.9,37.9,93,30.04,7.0,East,5.8,-,N/A,,Mostly Cloudy,80,2013-01-13 01:54:00
9:54 PM,39.9,37.9,93,30.05,6.0,East,4.6,-,N/A,,Mostly Cloudy,90,2013-01-13 02:54:00
10:54 PM,39.0,37.9,96,30.04,5.0,ENE,3.5,-,N/A,,Mostly Cloudy,70,2013-01-13 03:54:00
11:54 PM,37.9,36.0,93,30.04,3.0,ENE,4.6,-,N/A,,Scattered Clouds,70,2013-01-13 04:54:00